Three Rivers, MI

6:49 PM EDT on August 24, 2016 (GMT -0400)
Three Rivers Municipal-Haines

Weather History for KHAI - January, 2010

Change the Weather History Date:

Monday, January 25, 2010

  Actual Average Record
Temperature  
Mean Temperature 32 °F -  
Max Temperature 35 °F 33 °F 67 °F (1950)
Min Temperature 28 °F 17 °F -15 °F (1961)
Degree Days  
Heating Degree Days 34    
Moisture  
Dew Point 28 °F    
Average Humidity 85    
Maximum Humidity 100    
Minimum Humidity 69    
Precipitation  
Precipitation 0.00 in - - ()
Sea Level Pressure  
Sea Level Pressure 29.31 in    
Wind  
Wind Speed 9 mph (WSW)    
Max Wind Speed 16 mph    
Max Gust Speed 28 mph    
Visibility 8 miles    
Events Snow    
Averages and records for this station are not official NWS values.
T = Trace of Precipitation, MM = Missing Value Source: NWS Daily Summary

Daily Weather History Graph

Daily Weather History Graph

Search for Another Location

Airport or City:

Trip Planner

Search our weather history database for the weather conditions in past years. The results will help you decide how hot, cold, wet, or windy it might be!

Date:

Astronomy

Jan. 25, 2010 Rise Set
Actual Time 8:01 AM EST 5:48 PM EST
Civil Twilight 7:31 AM EST 6:18 PM EST
Nautical Twilight 6:57 AM EST 6:52 PM EST
Astronomical Twilight 6:24 AM EST 7:25 PM EST
Moon 12:50 PM EST (1/25) 3:39 AM EST (1/25)
Length of Visible Light 10h 47m
Length of Day
9h 46m
Waxing Gibbous, 73% of the Moon is Illuminated
Jan 25
Waxing Gibbous
Jan 30
Full
Feb 5
Last Quarter
Feb 13
New
Feb 21
First Quarter

Hourly Weather History & Observations

Time (EST) Temp. Windchill Dew Point Humidity Pressure Visibility Wind Dir Wind Speed Gust Speed Precip Events Conditions
12:16 AM 35.6 °F 31.7 °F 35.6 °F 100% 29.30 in 10.0 mi WSW 4.6 mph - N/A   Overcast
12:55 AM 35.6 °F 31.7 °F 33.8 °F 93% 29.30 in 10.0 mi West 4.6 mph - N/A   Overcast
1:16 AM 35.6 °F 29.2 °F 33.8 °F 93% 29.30 in 7.0 mi West 8.1 mph - N/A   Overcast
1:36 AM 35.6 °F 28.0 °F 33.8 °F 93% 29.30 in 5.0 mi West 10.4 mph - N/A   Overcast
1:55 AM 35.6 °F 27.5 °F 33.8 °F 93% 29.29 in 4.0 mi West 11.5 mph - N/A   Overcast
2:16 AM 33.8 °F 25.8 °F 33.8 °F 100% 29.29 in 5.0 mi West 10.4 mph - N/A   Overcast
2:36 AM 33.8 °F 25.8 °F 32.0 °F 93% 29.29 in 7.0 mi West 10.4 mph 17.3 mph N/A   Overcast
2:55 AM 33.8 °F 24.8 °F 32.0 °F 93% 29.30 in 5.0 mi West 12.7 mph 17.3 mph N/A   Overcast
3:16 AM 33.8 °F 25.8 °F 32.0 °F 93% 29.29 in 5.0 mi West 10.4 mph - N/A   Overcast
3:36 AM 32.0 °F 24.8 °F 32.0 °F 100% 29.29 in 7.0 mi West 8.1 mph - N/A   Overcast
3:55 AM 32.0 °F 24.2 °F 32.0 °F 100% 29.29 in 10.0 mi West 9.2 mph - N/A   Overcast
4:16 AM 32.0 °F 22.5 °F 30.2 °F 93% 29.29 in 10.0 mi West 12.7 mph 17.3 mph N/A   Overcast
4:36 AM 32.0 °F 23.6 °F 30.2 °F 93% 29.29 in 10.0 mi West 10.4 mph 18.4 mph N/A   Overcast
4:55 AM 32.0 °F 23.6 °F 30.2 °F 93% 29.29 in 10.0 mi WSW 10.4 mph - N/A   Overcast
5:16 AM 32.0 °F 22.1 °F 30.2 °F 93% 29.29 in 10.0 mi West 13.8 mph 18.4 mph N/A   Overcast
5:36 AM 32.0 °F 24.8 °F 28.4 °F 87% 29.29 in 10.0 mi WSW 8.1 mph - N/A   Overcast
5:55 AM 32.0 °F 23.6 °F 28.4 °F 87% 29.29 in 10.0 mi West 10.4 mph - N/A   Overcast
6:16 AM 32.0 °F 23.0 °F 26.6 °F 80% 29.29 in 10.0 mi West 11.5 mph - N/A   Overcast
6:36 AM 30.2 °F 21.9 °F 26.6 °F 86% 29.30 in 10.0 mi WSW 9.2 mph - N/A   Overcast
6:55 AM 30.2 °F 20.8 °F 26.6 °F 86% 29.30 in 10.0 mi WSW 11.5 mph 16.1 mph N/A   Overcast
7:16 AM 32.0 °F 22.5 °F 24.8 °F 75% 29.30 in 10.0 mi West 12.7 mph 17.3 mph N/A   Overcast
7:36 AM 32.0 °F 24.2 °F 24.8 °F 75% 29.30 in 10.0 mi WSW 9.2 mph 16.1 mph N/A   Overcast
7:55 AM 32.0 °F 24.8 °F 24.8 °F 75% 29.31 in 10.0 mi WSW 8.1 mph 16.1 mph N/A   Overcast
8:36 AM 32.0 °F 24.2 °F 24.8 °F 75% 29.31 in 10.0 mi SW 9.2 mph - N/A   Overcast
8:55 AM 32.0 °F 24.2 °F 24.8 °F 75% 29.30 in 10.0 mi SW 9.2 mph - N/A   Overcast
9:16 AM 32.0 °F 25.6 °F 24.8 °F 75% 29.30 in 10.0 mi SW 6.9 mph - N/A   Overcast
9:36 AM 32.0 °F 23.0 °F 24.8 °F 75% 29.30 in 10.0 mi SW 11.5 mph - N/A   Overcast
9:55 AM 32.0 °F 23.6 °F 24.8 °F 75% 29.30 in 10.0 mi SW 10.4 mph 16.1 mph N/A   Overcast
10:16 AM 32.0 °F 25.6 °F 26.6 °F 80% 29.30 in 10.0 mi SW 6.9 mph - N/A   Overcast
10:36 AM 32.0 °F 24.2 °F 26.6 °F 80% 29.30 in 7.0 mi SW 9.2 mph - N/A Snow Light Snow
10:55 AM 32.0 °F 24.2 °F 28.4 °F 87% 29.30 in 5.0 mi SW 9.2 mph 12.7 mph N/A Snow Light Snow
11:16 AM 32.0 °F 22.5 °F 28.4 °F 87% 29.30 in 7.0 mi SSW 12.7 mph 17.3 mph N/A Snow Light Snow
11:36 AM 32.0 °F 24.8 °F 28.4 °F 87% 29.30 in 4.0 mi SW 8.1 mph 17.3 mph N/A Snow Light Snow
11:55 AM 32.0 °F 24.2 °F 28.4 °F 87% 29.30 in 10.0 mi SW 9.2 mph - N/A Snow Light Snow
12:16 PM 32.0 °F 22.5 °F 28.4 °F 87% 29.29 in 4.0 mi SW 12.7 mph 18.4 mph N/A Snow Light Snow
12:37 PM 32.0 °F 24.2 °F 28.4 °F 87% 29.28 in 5.0 mi WSW 9.2 mph - N/A Snow Light Snow
12:55 PM 32.0 °F 23.0 °F 28.4 °F 87% 29.28 in 2.5 mi SW 11.5 mph 18.4 mph N/A Snow Light Snow
1:16 PM 32.0 °F 21.6 °F 28.4 °F 87% 29.28 in 10.0 mi SSW 15.0 mph 19.6 mph N/A Snow Light Snow
1:36 PM 32.0 °F 22.1 °F 28.4 °F 87% 29.27 in 10.0 mi SSW 13.8 mph 18.4 mph N/A Snow Light Snow
1:55 PM 32.0 °F 24.2 °F 28.4 °F 87% 29.27 in 7.0 mi SW 9.2 mph 21.9 mph N/A Snow Light Snow
2:16 PM 32.0 °F 23.6 °F 28.4 °F 87% 29.27 in 10.0 mi SW 10.4 mph 21.9 mph N/A   Overcast
2:36 PM 32.0 °F 24.8 °F 28.4 °F 87% 29.27 in 10.0 mi SW 8.1 mph 18.4 mph N/A   Overcast
2:55 PM 32.0 °F 23.0 °F 26.6 °F 80% 29.27 in 10.0 mi SW 11.5 mph 19.6 mph N/A   Overcast
3:16 PM 32.0 °F 23.6 °F 24.8 °F 75% 29.28 in 10.0 mi SW 10.4 mph 20.7 mph N/A   Overcast
3:36 PM 32.0 °F 23.6 °F 24.8 °F 75% 29.28 in 10.0 mi SW 10.4 mph - N/A   Overcast
3:55 PM 32.0 °F 23.0 °F 23.0 °F 69% 29.29 in 10.0 mi SW 11.5 mph 21.9 mph N/A   Overcast
4:16 PM 32.0 °F 21.6 °F 23.0 °F 69% 29.30 in 10.0 mi SW 15.0 mph 23.0 mph N/A   Overcast
4:36 PM 32.0 °F 24.2 °F 24.8 °F 75% 29.31 in 10.0 mi WSW 9.2 mph 17.3 mph N/A Snow Light Snow
4:55 PM 32.0 °F 23.6 °F 28.4 °F 87% 29.33 in 2.5 mi SW 10.4 mph - N/A Snow Light Snow
5:16 PM 32.0 °F 24.2 °F 28.4 °F 87% 29.33 in 5.0 mi SW 9.2 mph - N/A Snow Light Snow
5:36 PM 32.0 °F 23.6 °F 28.4 °F 87% 29.34 in 3.0 mi SSW 10.4 mph - N/A Snow Light Snow
5:55 PM 32.0 °F 24.8 °F 28.4 °F 87% 29.35 in 3.0 mi SW 8.1 mph 18.4 mph N/A Snow Light Snow
6:16 PM 30.2 °F 22.6 °F 28.4 °F 93% 29.35 in 3.0 mi SSW 8.1 mph 16.1 mph N/A Snow Light Snow
6:36 PM 30.2 °F 20.8 °F 28.4 °F 93% 29.36 in 7.0 mi SSW 11.5 mph - N/A Snow Light Snow
6:55 PM 32.0 °F 23.0 °F 26.6 °F 80% 29.36 in 7.0 mi SSW 11.5 mph 18.4 mph N/A Snow Light Snow
7:16 PM 32.0 °F 24.2 °F 26.6 °F 80% 29.37 in 10.0 mi SSW 9.2 mph 16.1 mph N/A Snow Light Snow
7:36 PM 32.0 °F 23.0 °F 26.6 °F 80% 29.37 in 10.0 mi SSW 11.5 mph 17.3 mph N/A Snow Light Snow
7:55 PM 32.0 °F 22.5 °F 26.6 °F 80% 29.37 in 10.0 mi SW 12.7 mph 16.1 mph N/A   Overcast
8:16 PM 32.0 °F 23.0 °F 26.6 °F 80% 29.38 in 5.0 mi SW 11.5 mph 18.4 mph N/A Snow Light Snow
8:36 PM 30.2 °F 18.9 °F 26.6 °F 86% 29.39 in 7.0 mi SW 16.1 mph 24.2 mph N/A Snow Light Snow
8:55 PM 30.2 °F 21.3 °F 24.8 °F 80% 29.40 in 10.0 mi WSW 10.4 mph 27.6 mph N/A Snow Light Snow
9:16 PM 28.4 °F 18.5 °F 24.8 °F 86% 29.40 in 5.0 mi WSW 11.5 mph 17.3 mph N/A Snow Light Snow
9:36 PM 28.4 °F 18.0 °F 24.8 °F 86% 29.41 in 7.0 mi WSW 12.7 mph 18.4 mph N/A Snow Light Snow
9:57 PM 28.4 °F 17.0 °F 23.0 °F 80% 29.42 in 7.0 mi WSW 15.0 mph 19.6 mph N/A Snow Light Snow
10:16 PM 28.4 °F 19.1 °F 23.0 °F 80% 29.42 in 10.0 mi WSW 10.4 mph 17.3 mph N/A Snow Light Snow
10:36 PM 28.4 °F 19.7 °F 24.8 °F 86% 29.42 in 5.0 mi WSW 9.2 mph - N/A Snow Light Snow
10:55 PM 28.4 °F 19.1 °F 23.0 °F 80% 29.43 in 2.5 mi WSW 10.4 mph 24.2 mph N/A Snow Light Snow
11:16 PM 26.6 °F 14.7 °F 23.0 °F 86% 29.44 in 4.0 mi WSW 15.0 mph 21.9 mph N/A Snow Light Snow
11:36 PM 26.6 °F 13.4 °F 21.2 °F 80% 29.45 in 5.0 mi WSW 18.4 mph 25.3 mph N/A Snow Light Snow
11:57 PM 26.6 °F 16.2 °F 21.2 °F 80% 29.46 in 7.0 mi WSW 11.5 mph 21.9 mph N/A Snow Light Snow